THOR ABLESTAR DEB, 351

Orbit data source: Space-Track

THOR ABLESTAR DEB, 351 is space debris in LEO originally from a launch on Thu, 29 Jun 1961 UTC launched from the Air Force Eastern Test Range (AFETR). Debris objects in space refer to the collection of defunct objects orbiting the Earth. Examples of debris include non-operational satellites, rocket bodies, and fragments generated from explosions, collisions, or faulty payload assembly.

Loading next visibility...
Identifier
351, 1961-015DR
Orbit
LEO
Country
Flag of USUS
Related business
Manufacturer
Unknown
Mission
Spacecraft
Bus & Motor
Unknown
Mass
Unknown
Launch date (UTC)
1961-06-29 (65 years ago)
Launch vehicle
Unknown
Launch site
Air Force Eastern Test Range (AFETR)
Object type
Payload
Rocket body
Debris
Shape & HBR
Unknown shape, 0.1 m
Radar Cross Section
Medium (>0.1 m² and <1 m²)

Expand to show TLE details & history
Last TLE update: 21 hours ago

TLE from 21 hours ago
0 THOR ABLESTAR DEB
1 00351U 61015DR  26150.33409093  .00015893  00000-0  18028-2 0  9994
2 00351  66.7380 136.7994 0029030 313.3287  46.5420 14.86161103375086
Epoch: 2026-05-30T08:01Z
TLE epoch observation values (Epoch: 2026-05-30T08:01:05.456Z)
Latitude
-0.00002°
Longitude
128.67504°
Altitude
598.185 km
Speed
7.569 km/s
True Right ascension
09h 07m 11s
True Declination
0° 00' 00"
Sunlit
Object was in daylight at epoch
Visualization orbit readout
Latitude
Unknown
Longitude
Unknown
Altitude
Unknown
Speed
Unknown
Apparent Right ascension
Unknown
Apparent Declination
Unknown
Sunlit
N/A
Visualization observer readout
Local Sidereal Time
14:23:58
Azimuth
Unknown
Elevation
Unknown
Doppler factor
Unknown
Orbital elements
Apogee altitude
628.553 km
Perigee altitude
587.99 km
Semi-major axis
6,986.409 km
Eccentricity
0.0029
Inclination
66.738°
RAAN
136.7994°
Arg. of periapsis
313.3287°
True anomaly
46.78407°
Mean anomaly
46.542°
Eccentric anomaly
46.66298°
Mean motion
3.71674 °/min
Orbital period
96.86 mins
BSTAR
0.0018028

Documentation

Showing up to 5 results
|